Folsom Lake Weather Center

Moon Phase Calendar



Folsom Lake Water Level
Online Cameras

 


      

Current Conditions in Granite Bay
10/28/2020 1:48:26 PM

74°F
Feels Like 71
Clear
Humidity
27%
Pressure
30.06"
Wind
2 mph (ENE)
Dew Point
38°F
UV Index
4/10 (Moderate)
Visibility
6 mi

Hourly Forecast

Date & Time Wed, Oct 28
1:00 PM
Wed, Oct 28
2:00 PM
Wed, Oct 28
3:00 PM
Wed, Oct 28
4:00 PM
Wed, Oct 28
5:00 PM
Wed, Oct 28
6:00 PM
Wed, Oct 28
7:00 PM
Wed, Oct 28
8:00 PM
Wed, Oct 28
9:00 PM
Wed, Oct 28
10:00 PM
Wed, Oct 28
11:00 PM
Thu, Oct 29
12:00 AM
Thu, Oct 29
1:00 AM
Thu, Oct 29
2:00 AM
Thu, Oct 29
3:00 AM
Thu, Oct 29
4:00 AM
Thu, Oct 29
5:00 AM
Thu, Oct 29
6:00 AM
Thu, Oct 29
7:00 AM
Thu, Oct 29
8:00 AM
Thu, Oct 29
9:00 AM
Thu, Oct 29
10:00 AM
Thu, Oct 29
11:00 AM
Thu, Oct 29
12:00 PM
Thu, Oct 29
1:00 PM
Thu, Oct 29
2:00 PM
Thu, Oct 29
3:00 PM
Thu, Oct 29
4:00 PM
Thu, Oct 29
5:00 PM
Thu, Oct 29
6:00 PM
Thu, Oct 29
7:00 PM
Thu, Oct 29
8:00 PM
Thu, Oct 29
9:00 PM
Thu, Oct 29
10:00 PM
Thu, Oct 29
11:00 PM
Fri, Oct 30
12:00 AM
Fri, Oct 30
1:00 AM
Fri, Oct 30
2:00 AM
Fri, Oct 30
3:00 AM
Fri, Oct 30
4:00 AM
Fri, Oct 30
5:00 AM
Fri, Oct 30
6:00 AM
Fri, Oct 30
7:00 AM
Fri, Oct 30
8:00 AM
Fri, Oct 30
9:00 AM
Fri, Oct 30
10:00 AM
Fri, Oct 30
11:00 AM
Fri, Oct 30
12:00 PM
Condition
Clear

Clear

Clear

Clear

Clear

Clear

Clear

Clear

Clear

Clear

Clear

Clear

Clear

Clear

Clear

Clear

Clear

Clear

Clear

Clear

Clear

Clear

Clear

Clear

Clear

Clear

Clear

Clear

Clear

Clear

Clear

Clear

Clear

Clear

Clear

Clear

Clear

Clear

Clear

Clear

Clear

Clear

Clear

Clear

Clear

Clear

Clear

Clear
Temperature 74°F75°F76°F76°F74°F64°F63°F61°F59°F59°F58°F57°F57°F56°F55°F55°F54°F53°F52°F53°F60°F67°F71°F74°F77°F79°F80°F79°F76°F66°F64°F63°F61°F60°F59°F59°F58°F58°F57°F56°F55°F54°F53°F53°F61°F67°F71°F74°F
Feels Like 69°F70°F71°F70°F69°F60°F57°F54°F53°F52°F52°F51°F51°F50°F50°F49°F48°F47°F47°F48°F55°F62°F65°F68°F70°F72°F74°F73°F71°F61°F59°F56°F55°F54°F53°F52°F52°F51°F51°F50°F49°F48°F48°F48°F56°F62°F65°F68°F
Cloudiness 0%0%0%0%0%0%0%0%0%0%0%0%0%0%0%0%0%0%0%0%0%0%0%0%0%0%0%0%0%0%0%0%0%0%0%0%0%0%0%0%0%0%0%0%0%0%0%0%
Visibility 6 mi6 mi6 mi6 mi6 mi6 mi6 mi6 mi6 mi6 mi6 mi6 mi6 mi6 mi6 mi6 mi6 mi6 mi6 mi6 mi6 mi6 mi6 mi6 mi6 mi6 mi6 mi6 mi6 mi6 mi6 mi6 mi6 mi6 mi6 mi6 mi6 mi6 mi6 mi6 mi6 mi6 mi6 mi6 mi6 mi6 mi6 mi6 mi
Precipitation 0%0%0%0%0%0%0%0%0%0%0%0%0%0%0%0%0%0%0%0%0%0%0%0%0%0%0%0%0%0%0%0%0%0%0%0%0%0%0%0%0%0%0%0%0%0%0%0%
Humidity 27%22%19%18%20%27%29%30%32%33%33%33%33%34%34%35%36%37%37%36%28%23%20%18%17%16%16%16%18%25%27%28%30%31%31%31%31%32%32%33%34%35%36%36%28%22%20%18%
Dew Point 38°F34°F31°F30°F30°F24°F24°F24°F24°F23°F22°F21°F20°F18°F18°F17°F16°F16°F14°F14°F15°F17°F19°F21°F22°F24°F24°F24°F27°F24°F23°F24°F23°F22°F21°F19°F18°F17°F16°F16°F15°F15°F14°F15°F16°F17°F18°F20°F
Pressure 30.06"30.06"30.03"30.03"30.03"30.06"30.06"30.09"30.09"30.09"30.12"30.12"30.12"30.12"30.12"30.12"30.12"30.12"30.12"30.15"30.12"30.12"30.09"30.06"30.03"30"29.97"29.97"29.97"30"30.03"30.06"30.06"30.06"30.09"30.06"30.06"30.06"30.06"30.06"30.06"30.06"30.09"30.09"30.09"30.09"30.06"30.03"
Wind Speed 4.3 mph3.4 mph3.5 mph3.4 mph2.6 mph0.7 mph3.4 mph4.5 mph4.5 mph4.2 mph3.8 mph3.6 mph3.4 mph3.3 mph2.6 mph2.6 mph2.5 mph2.2 mph2.3 mph2 mph1.4 mph2.2 mph3.4 mph4.1 mph4.3 mph4.1 mph3.5 mph2.9 mph2.2 mph1.8 mph3 mph4.2 mph4.6 mph4.4 mph4.3 mph4.2 mph3.6 mph3.4 mph2.8 mph2.3 mph2.2 mph2.2 mph2 mph2 mph1 mph2.6 mph3.6 mph3.9 mph
Wind
Direction
264°
W
260°
W
242°
WSW
235°
SW
234°
SW
156°
SSE
83°
E
81°
E
80°
E
82°
E
79°
E
79°
E
78°
ENE
73°
ENE
67°
ENE
55°
NE
47°
NE
43°
NE
48°
NE
43°
NE

N
288°
WNW
270°
W
276°
W
280°
W
280°
W
270°
W
263°
W
238°
WSW
195°
SSW
104°
ESE
90°
E
88°
E
87°
E
88°
E
89°
E
81°
E
78°
ENE
81°
E
72°
ENE
56°
NE
48°
NE
44°
NE
41°
NE
64°
ENE
265°
W
263°
W
269°
W

Daily Forecast

Date High Low Precip. Humidity
Today
Oct 28

Clear
75 °F
53 °F
0%
27%
Thursday
Oct 29

Clear
79 °F
53 °F
0%
20%
Friday
Oct 30

Clear
79 °F
53 °F
0%
20%
Saturday
Oct 31

Clear
79 °F
54 °F
0%
19%
Sunday
Nov 1

Clear
82 °F
56 °F
0%
18%
Monday
Nov 2

Clear
81 °F
56 °F
0%
17%
Tuesday
Nov 3

Clouds
80 °F
56 °F
0%
17%
Wednesday
Nov 4

Clear
82 °F
56 °F
0%
17%
Thursday
Nov 5

Clouds
82 °F
59 °F
0%
18%
Friday
Nov 6

Clouds
71 °F
48 °F
18%
26%
Saturday
Nov 7

Rain
48 °F
42 °F
74%
64%
Sunday
Nov 8

Rain
51 °F
41 °F
94%
61%
Monday
Nov 9

Rain
54 °F
38 °F
94%
55%
Tuesday
Nov 10

Clear
55 °F
37 °F
0%
48%
Wednesday
Nov 11

Clear
59 °F
41 °F
0%
42%
Thursday
Nov 12

Rain
60 °F
43 °F
36%
40%


Temperature 8-14 Day Outlook



Precipitation 8-14 Day Outlook




Quick Links
Folsom Lake News
Folsom Lake Photos
Folsom Lake Videos




About Us
Contact Us
Site Map
Search Site
Advertise With Us
   
Folsom.USLakes.info
THE FOLSOM LAKE WEBSITE

Copyright 2020, Lakes Online
Privacy    |    Legal